#datint,netname,site,siteID,timestamp,IntT,BattV,AirT2,AirT,AirT_Avg,AirT_Max,AirT_Min,RH_Avg,RH_Max,RH_Min,EA_Avg,Td_Avg,Td_Max,Td_Min,WindS_Smp,WindS_Avg,WindD_Avg,WindD_SD,WindS_Max,ETo,ETr,SoilT4,SoilT8,SoilVWC8,SolarW_Avg,wetstate_Avg,wetT_Avg,Precip_accum,Precip_WPG,Precip_TB
15min,AgWx,beryljct,423,09DEC2020:00:00:00,15.1,12.75,10.9,10.7,11.0,12.3,8.6,60,61,57,0.148,-0.4,1.2,-3.1,2.784,3.1,163,13,5.7,-0.00001,0.00000,28.4,32.9,9,0,0,.,5.99,0.00,0.00
15min,AgWx,beryljct,423,09DEC2020:00:15:00,14.5,12.72,9.9,9.6,9.9,10.7,9.0,62,64,60,0.148,-0.4,-0.1,-0.8,0.68,2.0,159,11,3.7,-0.00004,-0.00004,28.2,32.9,8,0,0,.,5.99,0.00,0.00
15min,AgWx,beryljct,423,09DEC2020:00:30:00,14.0,12.72,10.6,9.7,9.1,9.7,8.8,64,65,63,0.152,-0.5,0.1,-0.9,2.126,0.5,149,26,2.4,-0.00011,-0.00015,28.0,32.9,8,0,0,.,5.99,0.00,0.00
15min,AgWx,beryljct,423,09DEC2020:00:45:00,13.6,12.71,8.9,8.9,9.6,10.2,8.9,68,73,63,0.166,1.1,2.2,0.0,0,2.4,106,4.5,4.4,-0.00003,-0.00003,27.8,32.9,9,0,0,.,5.99,0.00,0.00
15min,AgWx,beryljct,423,09DEC2020:01:00:00,13.2,12.7,10.6,10.1,9.6,10.6,8.7,68,73,65,0.156,1.2,2.0,0.3,2.258,1.2,178,11,2.3,-0.00007,-0.00010,27.6,32.9,8,0,0,.,5.99,0.00,0.00
15min,AgWx,beryljct,423,09DEC2020:01:15:00,13.0,12.69,9.1,8.6,9.7,10.8,8.0,64,67,62,0.151,0.0,0.7,-1.2,0.263,2.0,160,15,3.5,-0.00004,-0.00004,27.4,32.8,9,0,0,.,5.99,0.00,0.00
15min,AgWx,beryljct,423,09DEC2020:01:30:00,12.7,12.68,6.6,6.3,8.1,9.4,6.3,66,68,63,0.127,-0.9,0.3,-3.7,3.047,1.7,288,39,4.1,-0.00005,-0.00006,27.2,32.8,9,0,0,.,5.99,0.00,0.00
15min,AgWx,beryljct,423,09DEC2020:01:45:00,12.2,12.67,10.5,9.1,7.5,9.1,6.0,61,63,59,0.138,-3.3,-2.0,-4.5,2.346,2.9,335,9.5,3.8,-0.00001,-0.00001,27.0,32.7,9,0,0,.,6.00,0.00,0.00
15min,AgWx,beryljct,423,09DEC2020:02:00:00,11.9,12.64,7.2,6.6,8.0,9.8,6.3,60,61,58,0.126,-3.1,-1.4,-4.6,0.022,0.9,355,1.2,3.0,-0.00007,-0.00010,26.9,32.7,8,0,0,.,6.00,0.00,0.00
15min,AgWx,beryljct,423,09DEC2020:02:15:00,11.6,12.64,7.7,6.8,6.5,7.0,5.8,62,64,60,0.128,-3.9,-3.4,-4.7,0,0.4,354,0.2,1.3,-0.00010,-0.00014,26.7,32.6,8,0,0,.,5.99,0.00,0.00
15min,AgWx,beryljct,423,09DEC2020:02:30:00,11.3,12.64,9.8,9.0,7.7,9.0,6.8,59,61,58,0.135,-3.7,-2.5,-4.2,0,0.2,354,0.0,1.1,-0.00011,-0.00017,26.6,32.6,8,0,0,.,6.00,0.00,0.00
15min,AgWx,beryljct,423,09DEC2020:02:45:00,11.4,12.62,9.7,9.2,9.0,9.2,8.8,60,63,58,0.146,-2.1,-0.9,-2.8,0,0.0,354,0.0,0.3,-0.00013,-0.00022,26.4,32.5,8,0,0,.,6.00,0.00,0.00
15min,AgWx,beryljct,423,09DEC2020:03:00:00,11.6,12.61,10.3,9.6,9.3,9.6,9.2,62,65,60,0.143,-1.0,-0.0,-1.6,0,0.0,354,0.1,0.4,-0.00014,-0.00022,26.3,32.5,8,0,0,.,6.00,0.00,0.00
15min,AgWx,beryljct,423,09DEC2020:03:15:00,12.0,12.59,10.2,9.7,9.8,9.9,9.6,59,61,58,0.143,-1.6,-1.2,-2.1,2.083,0.9,15,21,2.1,-0.00008,-0.00011,26.2,32.4,8,0,0,.,6.00,0.00,0.00
15min,AgWx,beryljct,423,09DEC2020:03:30:00,12.2,12.59,9.6,10.1,10.1,10.4,9.7,64,66,61,0.149,0.2,0.8,-1.2,4.56,1.8,166,23,4.6,-0.00005,-0.00005,26.1,32.3,8,0,0,.,6.00,0.00,0.00
15min,AgWx,beryljct,423,09DEC2020:03:45:00,12.1,12.56,9.2,8.7,8.7,9.9,8.1,62,64,61,0.139,-1.7,-0.6,-2.4,2.609,2.8,187,17,4.3,-0.00002,-0.00001,26.0,32.3,8,0,0,.,6.00,0.00,0.00
15min,AgWx,beryljct,423,09DEC2020:04:00:00,11.7,12.55,10.5,8.9,8.5,9.1,7.9,62,67,59,0.150,-1.9,-0.2,-2.8,4.297,3.4,193,20,4.5,-0.00000,0.00000,25.9,32.2,8,0,0,.,6.00,0.00,0.00
15min,AgWx,beryljct,423,09DEC2020:04:15:00,11.5,12.55,11.7,11.1,10.1,11.1,9.0,62,66,60,0.153,-0.4,0.4,-1.4,2.389,3.1,202,9.1,4.8,-0.00001,-0.00000,25.8,32.2,8,0,0,.,6.00,0.00,0.00
15min,AgWx,beryljct,423,09DEC2020:04:30:00,11.4,12.53,11.6,11.2,11.0,12.2,9.9,63,64,61,0.162,0.9,2.1,-0.5,0.965,1.4,196,20,4.1,-0.00007,-0.00008,25.7,32.1,8,0,0,.,6.00,0.00,0.00
15min,AgWx,beryljct,423,09DEC2020:04:45:00,11.2,12.51,9.3,11.8,12.0,14.2,9.9,64,67,61,0.157,2.2,3.9,-0.2,3.771,1.7,211,12,3.8,-0.00006,-0.00007,25.6,32.1,8,0,0,.,6.00,0.00,0.00
15min,AgWx,beryljct,423,09DEC2020:05:00:00,11.2,12.5,11.4,10.4,10.5,12.9,8.8,67,70,61,0.151,1.6,4.2,-0.2,1.995,2.8,190,14,4.5,-0.00002,-0.00002,25.5,32.0,8,0,0,.,6.00,0.00,0.00
15min,AgWx,beryljct,423,09DEC2020:05:15:00,11.1,12.5,11.7,12.2,11.6,13.5,10.3,66,69,62,0.175,2.4,4.6,-0.1,1.82,2.0,192,9.0,3.1,-0.00005,-0.00005,25.4,31.9,8,0,0,.,6.00,0.00,0.00
15min,AgWx,beryljct,423,09DEC2020:05:30:00,11.2,12.49,10.7,11.3,12.8,15.6,11.3,67,71,63,0.172,3.9,6.6,2.7,0,1.0,232,16,2.0,-0.00009,-0.00012,25.3,31.9,8,0,0,.,6.00,0.00,0.00
15min,AgWx,beryljct,423,09DEC2020:05:45:00,11.1,12.49,8.5,9.6,9.9,11.2,9.0,69,71,66,0.165,1.6,3.4,-0.0,3.244,0.6,255,55,3.2,-0.00010,-0.00015,25.2,31.8,8,0,0,.,6.00,0.00,0.00
15min,AgWx,beryljct,423,09DEC2020:06:00:00,10.8,12.48,6.7,6.6,7.5,9.4,6.5,69,70,67,0.140,-0.7,1.5,-1.8,0.636,2.7,143,4.1,4.9,-0.00003,-0.00003,25.2,31.8,8,0,0,.,6.00,0.00,0.00
15min,AgWx,beryljct,423,09DEC2020:06:15:00,10.3,12.48,7.3,6.9,6.9,7.4,6.4,68,69,67,0.143,-1.3,-0.8,-2.0,0,0.8,141,2.4,1.9,-0.00008,-0.00011,25.1,31.7,8,0,0,.,6.00,0.00,0.00
15min,AgWx,beryljct,423,09DEC2020:06:30:00,9.7,12.47,5.7,5.0,5.8,7.1,4.6,68,69,66,0.130,-2.7,-0.8,-4.2,2.828,2.4,307,31,3.9,-0.00003,-0.00003,24.9,31.7,8,0,0,.,6.00,0.00,0.00
15min,AgWx,beryljct,423,09DEC2020:06:45:00,9.1,12.46,8.0,7.3,6.5,7.3,5.0,69,71,68,0.144,-1.4,-0.8,-3.2,0,1.0,305,0.5,3.1,-0.00007,-0.00010,24.9,31.6,8,0,0,.,6.00,0.00,0.00
15min,AgWx,beryljct,423,09DEC2020:07:00:00,8.7,12.46,9.6,8.4,8.1,8.7,7.3,67,68,66,0.150,-0.7,-0.2,-1.2,2.346,0.9,285,63,2.6,0.00003,0.00005,24.8,31.6,8,0,0,.,6.00,0.00,0.00
15min,AgWx,beryljct,423,09DEC2020:07:15:00,8.5,12.44,5.6,5.2,6.4,8.9,5.1,69,70,65,0.133,-1.8,0.4,-2.8,1.973,2.4,176,13,3.9,0.00006,0.00011,24.7,31.5,8,0,0,.,6.00,0.00,0.00
15min,AgWx,beryljct,423,09DEC2020:07:30:00,8.2,12.45,4.6,4.3,5.0,5.6,4.3,68,69,67,0.125,-3.3,-2.7,-4.1,1.622,1.7,175,0.8,3.1,0.00005,0.00008,24.6,31.4,8,2,0,.,6.00,0.00,0.00
15min,AgWx,beryljct,423,09DEC2020:07:45:00,7.8,12.46,4.7,4.0,4.1,4.3,3.7,67,68,66,0.122,-4.3,-4.0,-4.7,1.929,1.6,174,0.2,2.4,0.00006,0.00009,24.5,31.4,8,8,0,.,6.00,0.00,0.00
15min,AgWx,beryljct,423,09DEC2020:08:00:00,7.5,12.82,9.0,8.0,5.9,9.2,4.0,69,71,67,0.150,-2.0,1.9,-4.5,0,1.2,176,2.5,2.0,0.00011,0.00013,24.4,31.3,8,35,0,.,6.00,0.00,0.00
15min,AgWx,beryljct,423,09DEC2020:08:15:00,8.3,14.63,8.1,7.8,8.0,9.0,7.6,71,73,68,0.151,0.4,1.6,-0.3,1.863,1.0,301,26,2.2,0.00016,0.00019,24.3,31.2,8,79,0,.,6.01,0.00,0.00
15min,AgWx,beryljct,423,09DEC2020:08:30:00,10.4,14.93,12.1,11.1,9.2,11.1,7.8,67,70,65,0.165,0.6,1.7,-0.2,0.723,1.0,308,0.1,1.7,0.00023,0.00027,24.2,31.2,9,113,0,.,6.00,0.00,0.00
15min,AgWx,beryljct,423,09DEC2020:08:45:00,13.4,14.94,15.6,15.0,13.1,15.0,11.3,62,66,59,0.178,2.6,3.4,1.9,1.096,0.7,311,3.5,1.6,0.00033,0.00037,24.1,31.1,9,148,0,.,6.00,0.00,0.00
15min,AgWx,beryljct,423,09DEC2020:09:00:00,17.0,14.94,18.8,18.3,16.7,18.3,15.1,56,59,52,0.180,3.8,4.1,3.3,2.609,2.1,342,15,3.2,0.00048,0.00058,24.0,31.1,9,184,0,.,6.00,0.00,0.00
15min,AgWx,beryljct,423,09DEC2020:09:15:00,20.5,14.92,21.7,21.2,19.8,21.2,18.4,51,52,50,0.195,4.5,5.7,3.5,2.083,2.3,343,6.8,2.9,0.00063,0.00076,24.0,31.0,9,221,0,.,6.00,0.00,0.00
15min,AgWx,beryljct,423,09DEC2020:09:30:00,24.0,14.87,24.6,23.8,22.5,23.8,21.2,48,50,47,0.206,6.0,6.9,5.4,1.491,1.6,347,5.8,2.3,0.00076,0.00089,24.0,31.0,9,259,0,.,5.99,0.00,0.00
15min,AgWx,beryljct,423,09DEC2020:09:45:00,27.5,14.83,26.7,26.5,25.3,26.5,23.9,43,47,41,0.198,6.0,6.7,5.6,1.995,1.8,359,8.5,3.1,0.00094,0.00110,24.0,30.9,9,295,0,.,6.00,0.00,0.00
15min,AgWx,beryljct,423,09DEC2020:10:00:00,30.4,14.78,28.5,28.1,27.3,28.2,26.5,39,41,38,0.196,5.7,6.1,5.3,3.99,3.5,355,9.6,4.9,0.00115,0.00142,24.0,30.8,9,330,0,.,6.00,0.00,0.00
15min,AgWx,beryljct,423,09DEC2020:10:15:00,32.5,14.8,29.6,29.6,28.7,29.8,28.1,37,38,36,0.200,5.7,6.4,5.2,4.516,3.9,357,9.7,5.3,0.00131,0.00163,24.1,30.8,9,363,0,.,5.99,0.00,0.00
15min,AgWx,beryljct,423,09DEC2020:10:30:00,34.4,14.73,31.9,31.5,30.4,31.6,29.5,35,36,34,0.206,6.1,6.8,5.7,1.995,3.0,356,11,4.6,0.00144,0.00174,24.1,30.7,9,393,0,.,5.99,0.00,0.00
15min,AgWx,beryljct,423,09DEC2020:10:45:00,36.3,14.27,33.4,33.3,32.6,33.5,31.5,34,35,33,0.212,7.0,7.8,6.3,1.841,2.5,354,24,3.6,0.00158,0.00187,24.3,30.7,8,420,0,.,5.99,0.00,0.00
15min,AgWx,beryljct,423,09DEC2020:11:00:00,38.3,14.27,35.0,34.7,34.2,35.0,33.2,32,33,31,0.213,7.4,8.2,6.9,2.083,1.8,356,23,3.7,0.00169,0.00196,24.5,30.6,8,444,0,.,5.99,0.00,0.00
15min,AgWx,beryljct,423,09DEC2020:11:15:00,40.2,14.18,37.5,36.8,35.7,36.9,34.7,31,32,30,0.223,7.9,8.7,7.4,2.477,2.2,7.2,28,3.8,0.00183,0.00214,24.7,30.6,8,466,0,.,5.99,0.00,0.00
15min,AgWx,beryljct,423,09DEC2020:11:30:00,41.9,14.2,38.8,37.9,37.5,38.3,36.6,29,30,28,0.224,8.3,9.4,7.7,1.271,1.9,66,34,3.7,0.00196,0.00227,25.0,30.5,8,485,0,.,5.99,0.00,0.00
15min,AgWx,beryljct,423,09DEC2020:11:45:00,43.4,14.19,38.6,39.3,38.8,39.4,38.0,28,29,28,0.230,8.8,9.4,8.3,3.223,1.7,98,21,3.8,0.00204,0.00233,25.4,30.5,8,500,0,.,5.98,0.00,0.00
15min,AgWx,beryljct,423,09DEC2020:12:00:00,44.4,14.15,41.0,40.7,40.4,41.8,39.2,27,28,26,0.232,9.2,10.1,8.7,1.556,1.8,129,32,3.3,0.00214,0.00246,25.7,30.5,8,511,0,.,5.98,0.00,0.00
15min,AgWx,beryljct,423,09DEC2020:12:15:00,45.4,14.09,42.4,43.0,41.7,43.4,40.7,27,27,25,0.242,9.9,10.7,9.1,2.674,1.8,105,34,3.7,0.00222,0.00255,26.1,30.4,8,518,0,.,5.98,0.00,0.00
15min,AgWx,beryljct,423,09DEC2020:12:30:00,46.4,14.09,44.2,43.7,43.2,44.3,42.3,25,26,25,0.242,10.1,10.8,9.5,1.206,1.8,117,25,3.5,0.00229,0.00264,26.6,30.4,8,522,0,.,5.98,0.00,0.00
15min,AgWx,beryljct,423,09DEC2020:12:45:00,47.5,14.04,45.2,45.3,44.8,45.5,43.7,24,25,24,0.244,10.6,11.3,10.1,0,1.5,107,25,3.2,0.00233,0.00266,27.1,30.4,8,521,0,.,5.98,0.00,0.00
15min,AgWx,beryljct,423,09DEC2020:13:00:00,48.7,14.02,47.5,46.9,46.2,46.9,45.3,24,24,23,0.254,10.9,11.5,10.3,0.723,1.3,98,30,3.7,0.00233,0.00263,27.6,30.4,8,515,0,.,5.97,0.00,0.00
15min,AgWx,beryljct,423,09DEC2020:13:15:00,50.0,14,50.8,48.4,47.8,48.7,47.0,22,23,22,0.255,11.2,11.9,10.6,2.346,2.2,134,23,3.7,0.00242,0.00285,28.1,30.4,8,508,0,.,5.97,0.00,0.00
15min,AgWx,beryljct,423,09DEC2020:13:30:00,51.1,13.99,49.4,49.8,49.3,50.3,48.4,21,22,21,0.253,11.4,12.1,10.9,4.604,3.3,123,20,5.5,0.00252,0.00308,28.7,30.4,8,496,0,.,5.97,0.00,0.00
15min,AgWx,beryljct,423,09DEC2020:13:45:00,52.1,13.93,51.5,51.4,50.7,51.7,49.7,20,21,20,0.261,11.6,12.4,11.2,5.217,4.1,134,16,6.3,0.00257,0.00325,29.2,30.4,8,481,0,.,5.97,0.00,0.00
15min,AgWx,beryljct,423,09DEC2020:14:00:00,53.1,13.91,56.9,55.0,52.8,55.0,51.3,20,20,19,0.278,12.7,13.7,11.7,4.779,5.2,115,9.6,7.6,0.00260,0.00342,29.8,30.4,8,446,0,.,5.96,0.00,0.00
15min,AgWx,beryljct,423,09DEC2020:14:15:00,54.9,13.86,59.0,58.8,57.2,58.9,55.2,16,19,13,0.234,11.0,13.4,8.0,6.971,7.4,153,23,11.8,0.00303,0.00422,30.3,30.5,8,440,0,.,5.96,0.00,0.00
15min,AgWx,beryljct,423,09DEC2020:14:30:00,56.7,13.88,59.6,58.9,58.6,59.1,58.2,13,15,13,0.219,8.6,10.2,7.1,7.826,8.9,164,15,13.3,0.00315,0.00456,30.9,30.5,8,410,0,.,5.96,0.00,0.00
15min,AgWx,beryljct,423,09DEC2020:14:45:00,58.1,13.82,59.1,58.9,59.1,59.3,58.8,12,13,12,0.203,6.8,8.5,5.9,7.432,10.2,180,14,14.1,0.00321,0.00479,31.4,30.6,8,384,0,.,5.96,0.00,0.00
15min,AgWx,beryljct,423,09DEC2020:15:00:00,59.0,13.83,59.1,58.9,59.0,59.5,58.8,12,12,12,0.204,6.6,7.1,6.0,11.11,10.6,183,8.9,16.0,0.00315,0.00476,31.9,30.6,8,362,0,.,5.96,0.00,0.00
15min,AgWx,beryljct,423,09DEC2020:15:15:00,59.6,13.8,58.8,58.6,59.0,59.4,58.6,12,12,12,0.201,6.5,7.5,5.9,10.17,10.5,182,11,14.5,0.00297,0.00456,32.3,30.7,8,328,0,.,5.96,0.00,0.00
15min,AgWx,beryljct,423,09DEC2020:15:30:00,59.7,13.82,58.8,58.7,58.7,58.9,58.6,12,12,12,0.207,6.4,6.9,6.0,9.45,9.7,181,13,12.5,0.00266,0.00414,32.8,30.8,8,288,0,.,5.96,0.00,0.00
15min,AgWx,beryljct,423,09DEC2020:15:45:00,59.7,13.8,58.5,58.3,58.5,58.7,58.2,12,12,12,0.206,6.4,6.9,6.1,5.831,9.0,185,8.8,12.8,0.00239,0.00379,33.2,30.9,8,254,0,.,5.96,0.00,0.00
15min,AgWx,beryljct,423,09DEC2020:16:00:00,59.6,13.82,57.7,57.7,58.0,58.5,57.7,12,13,12,0.203,6.4,7.0,5.9,6.752,8.1,180,9.8,11.1,0.00204,0.00331,33.5,31.0,8,216,0,.,5.96,0.00,0.00
15min,AgWx,beryljct,423,09DEC2020:16:15:00,58.8,13.85,56.2,56.1,56.8,57.7,56.1,13,13,13,0.200,6.1,6.5,5.8,5.897,7.4,175,9.1,9.7,0.00145,0.00258,33.9,31.1,8,129,0,.,5.96,0.00,0.00
15min,AgWx,beryljct,423,09DEC2020:16:30:00,56.7,13.22,52.4,51.9,53.9,56.2,51.9,14,15,13,0.198,5.9,6.1,5.6,5.634,6.0,164,5.9,7.7,0.00057,0.00077,34.1,31.2,8,34,0,.,5.97,0.00,0.00
15min,AgWx,beryljct,423,09DEC2020:16:45:00,53.3,13.12,48.2,48.1,49.7,52.1,47.4,16,17,15,0.184,4.7,5.7,3.7,4.384,4.4,187,14,6.0,0.00036,0.00051,34.3,31.4,9,21,0,.,5.97,0.00,0.00
15min,AgWx,beryljct,423,09DEC2020:17:00:00,49.6,13.09,48.4,47.2,47.1,48.1,46.3,17,17,16,0.190,4.5,4.9,3.8,5.941,5.9,198,6.8,7.1,0.00044,0.00058,34.5,31.5,9,19,0,.,5.97,0.00,0.00
15min,AgWx,beryljct,423,09DEC2020:17:15:00,47.3,13.03,47.5,47.5,47.9,48.5,47.4,17,17,17,0.189,4.9,5.1,4.6,5.349,5.7,204,2.0,6.5,0.00042,0.00056,34.5,31.6,8,9,0,.,5.97,0.00,0.00
15min,AgWx,beryljct,423,09DEC2020:17:30:00,45.8,13.01,46.7,47.3,47.6,48.0,47.3,17,17,17,0.194,4.9,5.3,4.6,6.226,5.7,203,2.1,6.7,0.00040,0.00054,34.6,31.8,9,2,0,.,5.97,0.00,0.00
15min,AgWx,beryljct,423,09DEC2020:17:45:00,45.1,12.99,45.7,46.0,46.9,47.6,46.0,18,18,17,0.194,5.3,5.6,5.1,5.722,5.9,198,3.8,6.5,0.00040,0.00054,34.5,31.9,9,0,0,.,5.97,0.00,0.00
15min,AgWx,beryljct,423,09DEC2020:18:00:00,44.5,12.99,49.6,48.9,46.8,48.9,45.5,18,19,17,0.197,5.5,6.0,5.0,7.87,6.8,197,4.2,8.6,0.00045,0.00059,34.4,32.0,8,0,0,.,5.97,0.00,0.00
15min,AgWx,beryljct,423,09DEC2020:18:15:00,44.3,12.97,37.1,38.0,45.3,49.3,37.9,18,23,16,0.174,4.3,5.6,2.3,7.125,6.6,165,13,7.9,0.00044,0.00057,34.3,32.1,9,0,0,.,5.97,0.00,0.00
15min,AgWx,beryljct,423,09DEC2020:18:30:00,42.1,12.96,33.7,35.4,36.6,38.1,35.4,24,25,23,0.172,2.9,3.5,2.5,3.025,6.4,159,5.0,7.4,0.00030,0.00039,34.2,32.3,8,0,0,.,5.97,0.00,0.00
15min,AgWx,beryljct,423,09DEC2020:18:45:00,39.6,12.95,36.8,35.4,33.8,35.4,32.8,26,27,25,0.179,2.8,3.5,2.4,7.717,6.5,155,6.2,8.0,0.00026,0.00034,34.1,32.4,9,0,0,.,5.97,0.00,0.00
15min,AgWx,beryljct,423,09DEC2020:19:00:00,38.4,12.94,41.9,41.0,37.9,41.0,35.5,24,26,21,0.185,3.8,4.6,3.2,5.064,5.6,184,57,8.4,0.00027,0.00036,34.0,32.5,8,0,0,.,5.98,0.00,0.00
15min,AgWx,beryljct,423,09DEC2020:19:15:00,38.3,12.91,40.6,39.6,39.7,41.1,38.6,22,23,21,0.187,4.4,4.7,3.8,1.315,2.0,316,75,4.9,0.00000,0.00004,33.8,32.6,8,0,0,.,5.98,0.00,0.00
15min,AgWx,beryljct,423,09DEC2020:19:30:00,38.0,12.92,37.3,36.5,37.5,40.1,36.0,25,27,22,0.190,4.7,5.2,3.9,3.266,1.6,201,77,3.6,-0.00006,-0.00005,33.7,32.7,9,0,0,.,5.97,0.00,0.00
15min,AgWx,beryljct,423,09DEC2020:19:45:00,37.4,12.91,37.0,36.9,37.7,39.3,36.5,24,26,23,0.183,4.4,5.0,3.8,1.556,2.2,181,16,3.6,0.00001,0.00005,33.6,32.8,8,0,0,.,5.97,0.00,0.00
15min,AgWx,beryljct,423,09DEC2020:20:00:00,36.9,12.89,32.7,34.7,36.1,37.3,33.2,26,29,24,0.181,4.1,5.1,3.2,0.68,1.5,201,8.6,2.7,-0.00006,-0.00006,33.5,32.9,9,0,0,.,5.97,0.00,0.00
15min,AgWx,beryljct,423,09DEC2020:20:15:00,36.1,12.87,40.8,36.9,35.5,38.6,32.8,27,30,24,0.194,4.8,5.6,3.7,2.302,1.8,221,13,3.1,-0.00004,-0.00002,33.3,33.0,9,0,0,.,5.98,0.00,0.00
15min,AgWx,beryljct,423,09DEC2020:20:30:00,35.3,12.88,35.2,33.3,32.9,37.6,30.5,28,30,26,0.168,3.5,5.4,1.8,2.346,1.9,186,28,3.1,-0.00002,-0.00000,33.2,33.1,9,0,0,.,5.98,0.00,0.00
15min,AgWx,beryljct,423,09DEC2020:20:45:00,34.4,12.88,30.9,29.0,30.5,34.7,28.2,28,31,25,0.157,1.5,3.2,0.6,3.858,3.2,166,14,4.7,0.00008,0.00013,33.1,33.1,9,0,0,.,5.98,0.00,0.00
15min,AgWx,beryljct,423,09DEC2020:21:00:00,33.4,12.87,29.8,28.9,29.8,31.4,28.7,29,32,27,0.169,1.3,2.3,-0.1,1.644,2.6,188,2.0,4.2,0.00004,0.00008,32.9,33.2,9,0,0,.,5.98,0.00,0.00
15min,AgWx,beryljct,423,09DEC2020:21:15:00,32.7,12.83,31.2,30.9,29.5,30.9,28.5,31,32,29,0.171,2.3,2.8,2.0,3.902,2.5,163,12,4.3,0.00002,0.00005,32.8,33.2,9,0,0,.,5.98,0.00,0.00
15min,AgWx,beryljct,423,09DEC2020:21:30:00,32.0,12.84,30.8,29.9,28.6,30.9,26.8,33,36,29,0.172,3.0,4.0,2.0,1.951,2.7,199,28,4.3,0.00003,0.00007,32.7,33.3,8,0,0,.,5.98,0.00,0.00
15min,AgWx,beryljct,423,09DEC2020:21:45:00,31.6,12.85,29.2,28.7,29.2,30.1,28.4,31,32,29,0.167,2.2,3.1,1.6,2.74,1.7,164,31,3.0,-0.00005,-0.00004,32.5,33.3,8,0,0,.,5.98,0.00,0.00
15min,AgWx,beryljct,423,09DEC2020:22:00:00,31.2,12.83,27.3,26.2,27.8,29.1,25.9,33,38,30,0.170,2.3,3.6,1.3,2.17,1.7,160,2.0,2.6,-0.00004,-0.00004,32.4,33.4,9,0,0,.,5.98,0.00,0.00
15min,AgWx,beryljct,423,09DEC2020:22:15:00,30.8,12.83,26.8,26.8,26.9,27.8,26.0,34,38,33,0.186,2.5,4.3,1.6,4.823,1.5,182,47,4.8,-0.00007,-0.00008,32.3,33.4,8,0,0,.,5.98,0.00,0.00
15min,AgWx,beryljct,423,09DEC2020:22:30:00,30.3,12.81,31.6,30.5,27.5,30.5,26.2,35,38,31,0.180,3.5,4.6,2.9,4.889,4.1,301,2.1,5.3,0.00010,0.00015,32.2,33.5,9,0,0,.,5.98,0.00,0.00
15min,AgWx,beryljct,423,09DEC2020:22:45:00,30.5,12.81,32.2,32.4,31.6,32.6,30.5,29,31,28,0.177,3.3,3.7,3.0,0,1.8,312,1.3,4.8,-0.00003,-0.00002,32.1,33.5,8,0,0,.,5.98,0.00,0.00
15min,AgWx,beryljct,423,09DEC2020:23:00:00,30.6,12.8,27.9,27.5,29.1,32.4,27.0,39,50,28,0.206,6.5,11.0,3.2,2.521,2.6,134,23,4.7,0.00001,0.00004,32.0,33.5,8,0,0,.,5.98,0.00,0.00
15min,AgWx,beryljct,423,09DEC2020:23:15:00,30.5,12.78,27.5,27.2,27.6,27.9,27.1,36,40,33,0.194,3.8,6.4,2.7,1.052,1.6,179,13,3.2,-0.00005,-0.00005,31.8,33.5,8,0,0,.,5.98,0.00,0.00
15min,AgWx,beryljct,423,09DEC2020:23:30:00,30.3,12.79,28.5,28.3,28.1,28.5,27.1,36,39,35,0.187,4.6,5.5,4.2,2.061,1.3,206,0.3,2.1,-0.00009,-0.00011,31.8,33.5,8,0,0,.,5.98,0.00,0.00
15min,AgWx,beryljct,423,09DEC2020:23:45:00,30.3,12.77,27.1,29.4,29.8,31.8,28.2,34,39,30,0.200,5.1,6.9,3.8,3.003,1.9,217,21,3.4,-0.00003,-0.00002,31.7,33.5,9,0,0,.,5.98,0.00,0.00
15min,AgWx,bigpiney,439,09DEC2020:00:00:00,17.2,12.6,20.7,19.4,16.8,19.4,15.2,77,81,73,0.264,10.7,12.2,8.9,1.688,2.6,279,7.5,4.0,-0.00006,0.00006,30.7,33.0,45,0,0,0.0,0.00,0.00,0.00
15min,AgWx,bigpiney,439,09DEC2020:00:15:00,16.7,12.58,19.7,18.4,18.3,19.9,17.6,72,74,68,0.255,10.7,12.1,9.5,4.604,3.8,285,6.1,4.7,-0.00003,0.00009,30.7,33.0,45,0,0,0.0,0.00,0.00,0.00
15min,AgWx,bigpiney,439,09DEC2020:00:30:00,16.4,12.58,20.0,20.1,18.7,20.2,17.7,73,75,71,0.265,11.6,12.6,10.7,4.077,4.3,292,5.2,5.1,-0.00002,0.00009,30.7,33.0,45,0,0,0.0,0.00,0.00,0.00
15min,AgWx,bigpiney,439,09DEC2020:00:45:00,16.4,12.56,18.5,17.6,18.0,20.0,17.0,73,76,71,0.243,10.9,12.1,9.9,3.946,3.6,291,5.8,4.6,-0.00003,0.00008,30.6,32.9,45,0,0,0.0,0.00,0.00,0.00
15min,AgWx,bigpiney,439,09DEC2020:01:00:00,16.2,12.56,18.4,17.9,17.8,18.1,17.4,71,73,69,0.234,10.0,10.6,9.4,2.872,2.5,266,9.7,3.7,-0.00006,0.00008,30.6,33.0,45,0,0,0.0,0.00,0.00,0.00
15min,AgWx,bigpiney,439,09DEC2020:01:15:00,15.6,12.55,13.0,12.8,16.5,19.2,12.7,69,75,65,0.203,8.0,10.4,5.7,5.765,4.2,248,12,6.0,-0.00001,0.00010,30.6,33.0,46,0,0,0.0,0.00,0.00,0.00
15min,AgWx,bigpiney,439,09DEC2020:01:30:00,14.9,12.54,13.2,12.6,12.7,13.1,12.4,79,81,75,0.219,7.3,8.0,6.4,4.911,4.9,226,3.7,5.8,-0.00002,0.00006,30.6,33.0,46,0,0,0.0,0.00,0.00,0.00
15min,AgWx,bigpiney,439,09DEC2020:01:45:00,14.5,12.51,13.7,13.3,13.0,13.5,12.5,82,83,81,0.227,8.6,9.2,7.8,5.787,5.0,216,4.1,6.0,-0.00002,0.00005,30.6,33.0,46,0,0,0.0,0.00,0.00,0.00
15min,AgWx,bigpiney,439,09DEC2020:02:00:00,14.4,12.53,12.9,12.3,12.7,13.4,11.8,82,83,81,0.218,8.3,8.8,7.2,5.941,5.5,218,5.5,6.7,-0.00002,0.00005,30.6,33.0,46,0,0,0.0,0.00,0.00,0.00
15min,AgWx,bigpiney,439,09DEC2020:02:15:00,14.3,12.51,12.9,12.8,13.2,13.8,12.3,83,84,82,0.222,8.9,9.7,7.9,4.604,5.4,221,3.1,6.4,-0.00002,0.00005,30.6,33.1,46,0,0,0.0,0.00,0.00,0.00
15min,AgWx,bigpiney,439,09DEC2020:02:30:00,14.3,12.5,10.7,11.4,12.1,12.8,11.1,83,84,82,0.214,7.9,8.4,6.9,2.302,4.0,237,30,5.7,-0.00004,0.00005,30.6,33.0,46,0,0,0.0,0.00,0.00,0.00
15min,AgWx,bigpiney,439,09DEC2020:02:45:00,14.2,12.5,12.2,11.8,12.1,12.8,11.1,84,85,82,0.216,8.1,8.9,7.1,3.639,4.2,245,9.6,5.7,-0.00004,0.00004,30.6,32.9,46,0,0,0.0,0.00,0.00,0.00
15min,AgWx,bigpiney,439,09DEC2020:03:00:00,14.0,12.49,11.4,11.2,11.6,11.8,11.2,84,84,83,0.212,7.7,8.0,7.3,3.223,4.1,244,5.7,5.2,-0.00004,0.00004,30.6,33.0,46,0,0,0.0,0.00,0.00,0.00
15min,AgWx,bigpiney,439,09DEC2020:03:15:00,13.7,12.48,15.5,15.0,13.2,15.0,10.9,83,85,79,0.237,8.9,10.2,7.0,0,1.5,244,3.7,4.1,-0.00009,0.00003,30.5,32.9,46,0,0,0.0,0.00,0.00,0.00
15min,AgWx,bigpiney,439,09DEC2020:03:30:00,13.5,12.48,12.8,12.6,14.2,15.2,12.6,80,82,79,0.220,9.0,9.9,8.0,1.293,0.6,42,21,1.7,-0.00013,0.00002,30.5,33.0,46,0,0,0.0,0.00,0.00,0.00
15min,AgWx,bigpiney,439,09DEC2020:03:45:00,13.2,12.47,11.8,11.6,11.8,12.6,11.3,83,85,82,0.217,7.6,8.1,7.3,2.061,2.2,1.3,8.1,2.8,-0.00007,0.00003,30.5,32.9,46,0,0,0.0,0.00,0.00,0.00
15min,AgWx,bigpiney,439,09DEC2020:04:00:00,12.8,12.46,10.6,9.2,9.9,11.5,8.6,85,87,84,0.202,6.3,7.7,5.0,3.946,2.9,337,8.2,4.0,-0.00005,0.00003,30.5,33.0,46,0,0,0.0,0.00,0.00,0.00
15min,AgWx,bigpiney,439,09DEC2020:04:15:00,12.2,12.46,11.8,10.7,9.8,10.8,9.1,87,88,86,0.215,6.7,7.9,5.9,2.214,3.3,339,9.8,4.4,-0.00005,0.00003,30.5,32.9,46,0,0,0.0,0.00,0.00,0.00
15min,AgWx,bigpiney,439,09DEC2020:04:30:00,11.7,12.45,13.0,11.9,11.4,12.0,10.8,86,87,85,0.222,7.9,8.4,7.7,0.482,1.7,352,8.4,3.2,-0.00008,0.00003,30.5,33.0,46,0,0,0.0,0.00,0.00,0.00
15min,AgWx,bigpiney,439,09DEC2020:04:45:00,11.5,12.44,13.8,13.1,12.6,13.1,12.0,84,85,83,0.229,8.6,9.0,8.0,1.447,1.3,309,13,2.2,-0.00010,0.00003,30.5,33.0,46,0,0,0.0,0.00,0.00,0.00
15min,AgWx,bigpiney,439,09DEC2020:05:00:00,11.3,12.44,9.9,8.9,12.3,13.5,8.8,82,83,78,0.188,7.7,9.1,3.9,2.061,0.7,257,19,2.3,-0.00012,0.00002,30.5,32.9,46,0,0,0.0,0.00,0.00,0.00
15min,AgWx,bigpiney,439,09DEC2020:05:15:00,10.9,12.44,11.7,11.8,10.8,11.9,8.9,85,86,83,0.217,7.3,8.5,4.7,2.433,0.9,241,15,2.4,-0.00011,0.00002,30.5,33.0,46,0,0,0.0,0.00,0.00,0.00
15min,AgWx,bigpiney,439,09DEC2020:05:30:00,10.2,12.43,6.7,7.6,8.2,11.7,5.1,82,87,77,0.185,3.8,7.7,0.6,5.48,4.1,251,7.0,5.5,-0.00003,0.00004,30.4,32.9,46,0,0,0.0,0.00,0.00,0.00
15min,AgWx,bigpiney,439,09DEC2020:05:45:00,9.2,12.43,7.4,6.3,6.3,7.5,5.8,83,85,82,0.167,2.3,3.9,1.4,5.809,5.5,236,3.9,6.1,-0.00002,0.00004,30.4,33.0,46,0,0,0.0,0.00,0.00,0.00
15min,AgWx,bigpiney,439,09DEC2020:06:00:00,8.7,12.42,7.8,7.2,7.5,8.1,6.5,83,84,82,0.174,3.5,4.2,2.3,5.744,5.7,231,5.3,6.5,-0.00002,0.00004,30.4,33.0,46,0,0,0.0,0.00,0.00,0.00
15min,AgWx,bigpiney,439,09DEC2020:06:15:00,8.6,12.42,8.1,8.1,8.2,8.9,7.1,84,85,82,0.182,4.2,5.0,2.9,5.459,6.0,227,4.4,6.9,-0.00001,0.00004,30.4,33.0,46,0,0,0.0,0.00,0.00,0.00
15min,AgWx,bigpiney,439,09DEC2020:06:30:00,8.7,12.42,7.8,7.4,7.6,8.1,7.2,83,84,82,0.177,3.6,4.1,3.1,6.116,5.9,223,6.3,7.6,-0.00001,0.00004,30.4,32.9,46,0,0,0.0,0.00,0.00,0.00
15min,AgWx,bigpiney,439,09DEC2020:06:45:00,8.8,12.42,8.3,7.5,7.5,8.0,6.7,84,85,83,0.181,3.6,4.2,2.5,3.508,5.6,231,27,8.1,-0.00002,0.00004,30.3,33.0,46,0,0,0.0,0.00,0.00,0.00
15min,AgWx,bigpiney,439,09DEC2020:07:00:00,8.7,12.4,9.5,8.6,8.0,8.6,7.5,84,85,82,0.190,4.1,4.9,3.2,0,1.5,249,24,4.4,-0.00008,0.00002,30.3,32.9,46,0,0,0.0,0.00,0.00,0.00
15min,AgWx,bigpiney,439,09DEC2020:07:15:00,8.5,12.41,9.8,9.7,9.2,10.1,7.8,84,85,82,0.196,5.2,6.1,3.6,0.022,0.6,193,14,3.8,-0.00011,0.00002,30.3,32.9,46,0,0,0.0,0.00,0.00,0.00
15min,AgWx,bigpiney,439,09DEC2020:07:30:00,8.2,12.42,9.6,9.0,8.9,9.7,8.1,83,84,82,0.192,4.9,5.4,3.8,0.877,1.1,103,13,2.3,-0.00009,0.00002,30.3,33.0,46,1,0,0.0,0.00,0.00,0.00
15min,AgWx,bigpiney,439,09DEC2020:07:45:00,7.9,14.03,9.1,8.3,8.6,9.1,7.4,83,84,81,0.187,4.5,5.1,2.9,0,1.2,130,27,2.3,-0.00008,0.00003,30.3,32.9,46,8,0,0.0,0.00,0.00,0.00
15min,AgWx,bigpiney,439,09DEC2020:08:00:00,7.8,15.06,10.2,9.5,8.6,9.5,7.6,84,85,82,0.199,4.7,5.9,3.3,0.022,0.4,191,13,1.6,-0.00014,-0.00014,30.3,32.9,46,37,0,0.0,0.00,0.00,0.00
15min,AgWx,bigpiney,439,09DEC2020:08:15:00,8.0,15,9.6,9.2,8.2,9.5,6.8,84,85,81,0.195,4.2,5.9,2.5,0.767,1.4,197,19,3.1,-0.00005,-0.00004,30.3,33.0,46,66,0,0.0,0.00,0.00,0.00
15min,AgWx,bigpiney,439,09DEC2020:08:30:00,8.5,15.13,9.2,8.7,9.0,9.5,8.7,82,84,81,0.185,4.7,5.4,4.2,0.965,0.7,73,40,2.1,0.00002,0.00003,30.3,33.0,46,98,0,0.0,0.00,0.00,0.00
15min,AgWx,bigpiney,439,09DEC2020:08:45:00,10.0,15.01,10.9,10.4,9.7,10.5,8.7,83,84,82,0.203,5.6,6.6,4.4,0.526,0.9,93,15,2.0,0.00011,0.00012,30.2,32.9,46,131,0,0.0,0.00,0.00,0.00
15min,AgWx,bigpiney,439,09DEC2020:09:00:00,12.0,15.13,13.7,12.9,11.7,13.0,10.4,82,83,81,0.222,7.4,8.5,6.3,0,0.1,109,5.6,0.6,0.00020,0.00021,30.2,32.9,46,165,0,0.0,0.00,0.00,0.00